Probability
0 0 0 0 0 0 0 0 0 0 0 0 0 0 0 0 0 0 0 0 0 0 0 0 0 0 0 0 0 0 0 0 0 0 0 0 0 0 0 0 0 0 0 0
0 0 0 0 0 0 0 0 0 0 0 0 0 0 0 0 0 0 0 0 0 0 0 0 0 0 0 0 0 0 0 0 0 0 0 0 0 0 0 0 0 0 0 0
0 0 0 0 0 0 0 0 0 0 0 0 0 0 0 0 0 0 0 0 0 0 0 0 0 0 0 0 0 0 0 0 0 0 0 0 0 0 0 0 0 0 0 0
0 0 0 0 0 0 0 0 0 0 0 0 0 0 0 0 0 0 0 0 0 0 0 0 0 0 0 0 0 0 0 0 0 0 0 0 0 0 0 0 0 0 0 0
0 0 0 0 0 0 0 0 0 0 0 0 0 0 0 0 0 0 0 0 0 0 0 0 0 0 0 0 0 0 0 0 0 0 0 0 0 0 0 0 0 0 0 0
0 0 0 0 0 0 0 0 0 0 0 0 0 0 0 0 0 0 0 0 0 0 0 0 0 0 0 0 0 0 0 0 0 0 0 0 0 0 0 0 0 0 0 0
0 0 0 0 0 0 0 0 0 0 0 0 0 0 0 0 0 0 0 0 0 0 0 0 0 0 0 0 0 0 0 0 0 0 0 0 0 0 0 0 0 0 0 0
0 0 0 0 0 0 0 0 0 0 0 0 0 0 0 0 0 0 0 0 0 0 0 0 0 0 0 0 0 0 0 0 0 0 0 0 0 0 0 0 0 0 0 0
0 0 0 0 0 0 0 0 0 0 0 0 0 0 0 0 0 0 0 0 0 0 0 0 0 0 0 0 0 0 0 0 0 0 0 0 0 0 0 0 0 0 0 0
0 0 0 0 0 0 0 0 0 0 0 0 0 0 0 0 0 0 0 0 0 0 0 0 0 0 0 0 0 0 0 0 0 0 0 0 0 0 0 0 0 0 0 0
0 0 0 0 0 0 0 0 0 0 0 0 0 0 0 0 0 0 0 0 0 0 0 0 0 0 0 0 0 0 0 0 0 0 0 0 0 0 0 0 0 0 0 0
0 0 0 0 0 0 0 0 0 0 0 0 0 0 0 0 0 0 0 0 0 0 0 0 0 0 0 0 0 0 0 0 0 0 0 0 0 0 0 0 0 0 0 0
0 0 0 0 0 0 0 0 0 0 0 0 0 0 0 0 0 0 0 0 0 0 0 0 0 0 0 0 0 0 0 0 0 0 0 0 0 0 0 0 0 0 0 0
0 0 0 0 0 0 0 0 0 0 0 0 0 0 0 0 0 0 0 0 0 0 0 0 0 0 0 0 0 0 0 0 0 0 0 0 0 0 0 0 0 0 0 0
0 0 0 0 0 0 0 0 0 0 0 0 0 0 0 0 0 0 0 0 0 0 0 0 0 0 0 0 0 0 0 0 0 0 0 0 0 0 0 0 0 0 0 0
0 0 0 0 0 0 0 0 0 0 0 0 0 0 0 0 0 0 0 0 0 0 0 0 0 0 0 0 0 0 0 0 0 0 0 0 0 0 0 0 0 0 0 0
0 0 0 0 0 0 0 0 0 0 0 0 0 0 0 0 0 0 0 0 0 0 0 0 0 0 0 0 0 0 0 0 0 0 0 0 0 0 0 0 0 0 0 0
0 0 0 0 0 0 0 0 0 0 0 0 0 0 0 0 0 0 0 0 0 0 0 0 0 0 0 0 0 0 0 0 0 0 0 0 0 0 0 0 0 0 0 0
0 0 0 0 0 0 0 0 0 0 0 0 0 0 0 0 0 0 0 0 0 0 0 0 0 0 0 0 0 0 0 0 0 0 0 0 0 0 0 0 0 0 0 0
0 0 0 0 0 0 0 0 0 0 0 0 0 0 0 0 0 0 0 0 0 0 0 0 0 0 0 0 0 0 0 0 0 0 0 0 0 0 0 0 0 0 0 0
0 0 0 0 0 0 0 0 0 0 0 0 0 0 0 0 0 0 0 0 0 0 0 0 0 0 0 0 0 0 0 0 0 0 0 0 0 0 0 0 0 0 0 0
0 0 0 0 0 0 0 0 0 0 0 0 0 0 0 0 0 0 0 0 0 0 0 0 0 0 0 0 0 0 0 0 0 0 0 0 0 0 0 0 0 0 0 0
0 0 0 0 0 0 0 0 0 0 0 0 0 0 0 0 0 0 0 0 0 0 0 0 0 0 0 0 0 0 0 0 0 0 0 0 0 0 0 0 0 0 0 0
0 0 0 0 0 0 0 0 0 0 0 0 0 0 0 0 0 0 0 0 0 0 0 0 0 0 0 0 0 0 0 0 0 0 0 0 0 0 0 0 0 0 0 0
0 0 0 0 0 0 0 0 0 0 0 0 0 0 0 0 0 0 0 0 0 0 0 0 0 0 0 0 0 0 0 0 0 0 0 0 0 0 0 0 0 0 0 0
0 0 0 0 0 0 0 0 0 0 0 0 0 0 0 0 0 0 0 0 0 0 0 0 0 0 0 0 0 0 0 0 0 0 0 0 0 0 0 0 0 0 0 0
Wind_Speed
1 0 4 6 5 3 3 5 8 10 5 6 13 15 12 16 11 11 10 10 9 8 6 5 4 3 4 5 5 5 7 8 6 6 8 10 12 11 10 10 14 15 16 16
3 4 4 2 2 3 4 6 9 11 3 5 12 11 10 17 23 22 16 12 10 7 6 5 3 3 4 4 5 7 6 5 4 5 6 7 9 10 11 11 13 15 16 16
5 3 2 3 3 4 5 6 7 7 4 5 10 11 17 7 13 12 11 12 11 10 8 6 3 2 4 4 4 5 6 5 5 5 6 8 11 12 10 11 12 13 16 17
6 3 2 4 5 5 7 4 5 4 4 4 4 12 6 6 12 14 14 11 10 8 8 6 4 1 2 3 4 5 6 5 5 5 5 7 10 13 13 12 13 15 15 16
6 4 4 6 6 6 5 1 3 3 3 5 5 9 9 2 11 16 17 13 10 9 8 6 4 1 2 3 4 5 7 5 4 4 4 6 8 11 12 12 15 15 14 14
5 2 4 5 2 1 1 2 3 2 2 7 9 11 12 9 12 13 17 14 12 10 8 6 3 2 3 4 4 5 7 5 4 5 5 5 9 12 13 16 16 13 12 11
3 3 2 2 2 1 2 2 5 5 3 8 2 7 16 11 8 12 21 18 12 10 8 6 4 4 4 5 5 6 6 5 6 6 7 7 10 12 13 14 14 15 14 12
4 7 5 4 5 5 5 5 5 6 8 11 4 12 10 5 4 4 12 14 11 9 7 7 6 5 5 5 6 6 5 7 8 9 10 9 10 9 10 13 14 15 14 14
8 7 1 1 1 3 4 6 3 2 3 8 10 9 8 2 1 5 10 11 10 9 8 7 6 5 5 5 6 6 7 10 10 10 11 10 10 11 12 14 15 14 15 15
6 6 2 1 1 1 2 4 3 2 3 9 15 11 13 9 11 9 11 13 11 9 8 6 5 5 5 5 7 7 7 9 11 11 10 11 12 13 13 14 17 17 17 18
7 8 4 3 8 11 6 4 4 4 5 6 14 19 8 16 18 19 18 16 13 10 8 6 6 5 4 4 6 7 6 9 11 12 12 13 14 14 15 14 17 18 18 18
7 7 9 9 4 2 5 10 13 10 11 9 9 22 4 10 12 18 17 14 11 10 8 7 6 4 5 6 7 6 6 9 12 13 13 15 15 16 16 15 17 18 19 19
10 7 3 5 3 3 6 8 10 7 12 18 16 26 1 2 5 12 14 13 10 9 7 4 4 4 5 6 7 7 7 10 12 13 14 15 16 17 17 17 17 18 19 19
12 9 12 18 14 6 11 11 12 18 19 24 32 40 25 12 7 7 8 10 9 8 6 5 5 5 6 7 6 6 9 10 12 13 14 16 17 17 18 18 18 18 19 19
8 12 13 21 16 4 17 22 14 23 30 27 37 37 35 25 13 17 15 13 11 8 7 6 6 5 5 5 6 8 10 11 13 14 15 16 17 17 18 18 18 18 19 18
6 10 7 17 11 7 23 30 23 26 30 34 38 41 39 21 4 9 13 14 12 10 8 7 6 4 4 8 10 11 12 13 14 14 15 17 18 18 18 19 19 19 19 18
10 8 6 16 2 3 22 23 25 27 27 24 29 38 28 14 10 15 17 17 14 11 9 7 3 2 5 7 10 10 13 14 14 15 16 16 17 18 19 19 20 19 19 18
13 9 6 4 7 13 15 3 9 19 26 21 27 27 15 7 5 9 15 14 12 10 7 4 1 2 4 5 6 9 12 13 14 15 16 16 17 18 19 19 19 20 18 17
16 16 11 9 11 15 24 7 10 9 28 20 28 27 14 7 6 1 5 8 10 8 6 4 3 2 2 5 8 10 11 12 14 15 17 17 17 18 19 19 19 19 19 18
10 13 13 9 9 16 19 4 5 5 20 16 24 18 11 13 8 10 10 9 9 8 6 5 4 3 4 6 8 10 11 13 14 16 17 17 16 16 18 18 18 18 18 17
10 10 17 18 14 18 11 11 11 11 19 7 11 12 17 11 7 9 14 10 9 7 6 6 5 4 4 6 8 10 12 12 15 16 17 17 16 16 16 17 17 16 16 16
18 14 13 12 13 21 13 18 17 11 2 3 5 10 11 8 9 13 14 13 11 8 7 6 4 3 4 7 9 11 12 14 15 16 16 16 16 14 13 16 15 15 15 15
18 19 15 20 21 13 20 16 16 7 7 6 6 7 12 13 11 13 13 12 10 9 7 5 4 4 4 6 8 10 14 15 15 15 15 15 15 14 14 14 15 12 12 12
9 10 7 10 25 21 18 14 9 7 7 8 8 11 14 14 14 13 12 11 10 8 7 5 4 3 4 5 7 8 12 14 13 14 14 14 15 15 13 12 11 11 11 12
13 16 18 18 20 7 19 19 14 11 8 9 9 10 15 14 14 14 12 11 10 9 7 5 4 3 4 6 7 8 10 11 11 12 13 13 12 13 13 12 13 13 13 16
17 21 19 23 20 17 14 21 22 19 16 16 14 8 8 11 13 13 11 11 10 10 8 7 5 3 4 5 7 7 8 8 9 11 11 11 11 11 12 13 13 18 23 26
Wind_Direction
324 11 247 241 210 214 220 245 255 265 250 236 243 242 207 200 200 205 201 194 186 191 182 159 136 88 41 23 13 349 9 4 355 354 353 345 337 333 325 321 319 318 312 310
358 272 239 199 228 247 238 262 267 275 258 259 265 256 231 195 209 205 194 191 188 190 180 171 139 68 35 14 9 2 359 331 340 356 347 338 329 321 321 322 318 314 310 310
204 249 145 177 237 258 245 222 248 264 320 294 288 263 244 213 221 206 194 192 185 183 184 177 155 80 27 11 356 351 337 325 340 354 343 338 330 327 324 320 315 309 309 310
248 243 188 222 233 201 265 242 255 281 312 303 324 292 251 205 221 204 195 194 185 188 180 165 155 74 5 338 329 334 324 316 336 349 346 337 331 321 314 311 309 308 309 304
246 189 192 221 230 184 236 267 275 269 265 285 242 252 271 218 236 214 199 190 187 190 177 165 161 198 302 304 309 317 306 300 316 335 340 333 310 303 304 306 305 303 304 298
245 220 202 209 182 184 302 345 308 12 48 265 229 225 255 206 222 204 199 186 187 185 175 170 176 214 268 286 297 299 282 282 313 339 329 299 295 302 307 308 304 305 306 299
273 231 214 161 146 311 98 51 324 323 250 252 217 236 259 240 226 199 193 181 184 180 173 179 202 234 257 270 278 289 297 298 331 334 309 295 294 300 299 299 302 306 303 303
245 257 198 187 184 186 175 164 193 255 274 291 246 246 260 286 297 217 174 168 176 180 179 190 210 229 250 263 275 294 312 327 329 319 309 303 294 291 291 295 299 296 293 299
202 239 187 196 198 149 180 194 175 216 288 286 258 264 283 84 20 116 146 167 184 187 191 202 217 228 242 258 290 324 335 322 316 313 309 301 295 296 294 297 297 292 290 291
200 251 195 185 235 265 177 180 142 194 258 277 275 261 243 205 209 191 185 191 195 195 199 213 228 240 251 296 327 322 297 295 304 307 303 301 301 298 295 298 298 295 291 290
165 218 225 182 207 197 178 193 185 202 194 231 290 282 203 198 201 195 201 195 189 192 196 213 228 238 250 284 278 273 288 304 310 311 309 308 304 301 299 297 297 295 292 288
176 173 210 214 222 231 212 197 181 199 231 224 242 266 177 211 197 195 201 192 189 188 193 209 219 228 252 269 278 288 303 309 314 315 312 308 305 304 301 299 297 296 294 290
165 171 235 278 239 218 233 217 209 230 252 249 244 260 298 255 174 193 189 182 184 183 197 218 244 260 270 279 286 296 311 317 316 313 309 306 304 304 302 302 302 300 296 292
160 191 197 231 234 184 233 223 198 213 235 252 247 260 268 257 211 202 193 182 181 185 199 224 259 268 262 268 280 305 319 321 316 312 310 307 306 305 303 304 304 302 298 293
166 227 219 247 258 236 264 258 221 221 236 244 259 262 266 265 231 204 193 179 177 185 203 219 242 248 252 282 320 334 328 322 317 313 311 307 307 307 305 306 306 303 298 294
181 236 215 255 246 229 263 262 252 247 246 246 256 267 269 275 230 172 171 173 181 188 201 217 230 253 329 345 343 334 321 318 317 312 311 310 309 310 312 311 310 307 302 299
181 187 199 259 233 353 264 247 234 238 238 234 244 250 262 259 198 174 175 178 180 183 193 208 214 358 358 351 334 320 315 315 315 315 313 312 314 315 315 314 312 309 304 301
169 176 190 218 117 234 247 142 199 226 244 223 240 252 242 230 191 172 171 166 169 176 183 177 118 25 357 330 321 318 316 315 318 318 316 319 319 317 316 314 314 308 303 303
204 202 203 197 210 269 282 220 176 202 266 216 227 242 240 137 96 241 165 154 162 162 154 145 117 74 348 340 334 326 317 320 321 322 321 321 320 316 314 313 314 309 308 307
207 216 213 202 213 233 254 162 150 140 271 207 211 224 159 139 187 210 175 149 138 139 142 129 101 60 17 349 336 325 325 327 324 323 319 318 316 312 308 309 313 311 309 308
165 192 213 223 233 254 219 158 151 210 252 183 186 170 156 176 194 154 147 143 142 144 127 104 84 54 18 349 341 334 330 326 324 320 317 316 313 308 308 314 314 313 313 312
170 168 197 204 220 248 160 156 193 211 168 135 150 157 156 144 129 138 145 149 149 141 124 109 88 52 24 3 351 337 330 328 324 321 317 314 311 313 319 319 317 319 319 315
191 184 176 192 212 213 180 191 200 147 148 164 164 163 147 144 153 156 154 149 143 134 127 106 78 38 18 7 357 333 326 330 327 320 315 314 318 323 327 325 323 326 323 320
215 198 199 226 243 222 211 216 197 177 160 159 160 154 160 161 161 157 150 145 140 140 135 127 92 49 10 4 347 331 327 330 324 317 319 325 327 328 332 330 326 328 328 321
188 177 202 232 253 272 236 216 200 189 168 147 144 165 174 158 162 158 152 148 143 137 133 125 110 77 16 3 342 336 332 328 324 322 324 328 329 330 332 339 337 334 334 331
197 196 189 221 222 209 216 194 193 189 183 164 160 171 176 163 158 152 149 145 141 140 137 131 119 97 37 4 342 334 329 326 323 327 328 330 333 334 337 337 337 344 349 351